Location: Newark
(68.8333°S, 90.5833°W)
Time: 14:27:03
(UTC+00:00)

N. Korean satellite - Visible Passes

Search period start: 23 September 2020 00:00
Search period end: 03 October 2020 00:00
Orbit: 455 x 503 km, 97.2° (Epoch: 22 September)

Date Brightness Start Highest point End Pass type
(mag) Time Alt. Az. Time Alt. Az. Time Alt. Az.
23 Sep 9.1 02:10:22 10° S 02:13:19 25° SW 02:16:16 10° W visible
23 Sep 10.0 03:44:12 10° S 03:45:45 13° SSW 03:47:19 10° SW visible
23 Sep 10.0 06:48:23 10° SE 06:49:57 13° SSE 06:51:32 10° S visible
23 Sep 9.0 08:19:27 10° ENE 08:22:24 25° SE 08:25:22 10° S visible
23 Sep 6.6 09:51:54 10° NNE 09:55:26 84° ESE 09:58:59 10° SSW visible
24 Sep 8.6 01:44:14 10° SSE 01:47:27 33° SW 01:50:40 10° WNW visible
24 Sep 9.9 03:18:00 10° S 03:20:02 15° SSW 03:22:04 10° WSW visible
24 Sep 10.2 06:23:11 10° SE 06:24:16 11° SSE 06:25:20 10° S visible
24 Sep 9.5 07:53:56 10° E 07:56:35 20° SE 07:59:14 10° S visible
24 Sep 7.3 09:25:58 10° NE 09:29:26 57° ESE 09:32:55 10° SSW visible
25 Sep 7.9 01:18:07 10° SSE 01:21:32 45° WSW 01:24:57 10° NW visible
25 Sep 9.7 02:51:51 10° S 02:54:16 18° SW 02:56:42 10° WSW visible
25 Sep 10.3 04:25:48 10° S 04:26:32 10° SSW 04:27:14 10° SSW visible
25 Sep 10.4 05:58:09 10° SSE 05:58:35 10° S 05:59:01 10° S visible
25 Sep 9.8 07:28:32 10° ESE 07:30:48 16° SSE 07:33:05 10° S visible
25 Sep 8.0 09:00:09 10° NE 09:03:28 40° SE 09:06:49 10° SSW visible
26 Sep 9.4 02:25:41 10° S 02:28:28 22° SW 02:31:16 10° W visible
26 Sep 10.1 03:59:33 10° S 04:00:50 12° SSW 04:02:07 10° SW visible
26 Sep 10.0 07:03:12 10° ESE 07:05:03 14° SSE 07:06:55 10° S visible
26 Sep 8.7 08:34:28 10° ENE 08:37:34 30° SE 08:40:42 10° SSW visible
26 Sep 6.4 10:07:12 10° NNE 10:10:43 78° WNW 10:14:17 10° SSW visible
27 Sep 9.0 01:59:32 10° SSE 02:02:38 28° SW 02:05:44 10° WNW visible
27 Sep 10.0 03:33:21 10° S 03:35:07 13° SSW 03:36:55 10° SW visible
27 Sep 10.1 06:37:56 10° SE 06:39:20 12° SSE 06:40:44 10° S visible
27 Sep 9.2 08:08:53 10° E 08:11:43 23° SE 08:14:34 10° S visible
27 Sep 6.8 09:41:10 10° NNE 09:44:40 72° ESE 09:48:13 10° SSW visible
28 Sep 8.4 01:33:25 10° SSE 01:36:44 37° SW 01:40:04 10° WNW visible
28 Sep 9.8 03:07:10 10° S 03:09:23 16° SSW 03:11:37 10° WSW visible
28 Sep 10.4 04:41:15 10° S 04:41:35 10° S 04:41:54 10° SSW visible
28 Sep 10.3 06:12:46 10° SSE 06:13:38 11° SSE 06:14:31 10° S visible
28 Sep 9.6 07:43:24 10° E 07:45:54 18° SE 07:48:25 10° S visible
28 Sep 7.6 09:15:16 10° NE 09:18:41 49° ESE 09:22:07 10° SSW visible
29 Sep 9.7 02:40:59 10° S 02:43:36 19° SW 02:46:13 10° W visible
29 Sep 10.3 04:14:52 10° S 04:15:54 11° SSW 04:16:55 10° SSW visible
29 Sep 10.5 05:47:54 10° S 05:47:57 10° S 05:48:00 10° S visible
29 Sep 9.9 07:18:01 10° ESE 07:20:08 15° SSE 07:22:16 10° S visible
29 Sep 8.4 08:49:30 10° ENE 08:52:44 35° SE 08:56:01 10° SSW visible
30 Sep 9.3 02:14:50 10° S 02:17:47 24° SW 02:20:44 10° W visible
30 Sep 10.1 03:48:39 10° S 03:50:11 12° SSW 03:51:44 10° SW visible
30 Sep 10.0 06:52:41 10° SE 06:54:23 13° SSE 06:56:05 10° S visible
30 Sep 9.0 08:23:51 10° ENE 08:26:51 27° SE 08:29:53 10° SSW visible
30 Sep 6.5 09:56:23 10° NNE 09:59:55 89° ESE 10:03:30 10° SSW visible
01 Oct 8.8 01:48:42 10° SSE 01:51:54 31° SW 01:55:08 10° WNW visible
01 Oct 10.0 03:22:27 10° S 03:24:27 14° SSW 03:26:28 10° WSW visible
01 Oct 10.2 06:27:26 10° SE 06:28:40 11° SSE 06:29:55 10° S visible
01 Oct 9.5 07:58:17 10° E 08:01:00 21° SE 08:03:45 10° S visible
01 Oct 7.2 09:30:24 10° NE 09:33:53 61° ESE 09:37:25 10° SSW visible
02 Oct 9.8 02:56:17 10° S 02:58:41 17° SW 03:01:07 10° WSW visible
02 Oct 10.4 04:30:10 10° S 04:30:55 11° SSW 04:31:40 10° SSW visible
02 Oct 10.4 06:02:16 10° SSE 06:02:59 10° S 06:03:41 10° S visible
02 Oct 9.8 07:32:50 10° ESE 07:35:12 17° SE 07:37:36 10° S visible
02 Oct 8.0 09:04:33 10° NE 09:07:54 43° SE 09:11:19 10° SSW visible
